Location: Newark
(39.6867°N, 100.6772°W)
Time: 15:22:31
(UTC+00:00)

Transit 2A - Pass Details

Date: 21 October 2019
Orbit: 601 x 957 km, 66.7° (Epoch: 11 November)

Event Time Altitude Azimuth Distance (km) Brightness Sun altitude
Rises 01:15:33 0° 196° (SSW) 3,418 9.6 -15.9°
Reaches altitude 10° 01:18:09 10° 193° (SSW) 2,432 8.7 -16.4°
Maximum altitude 01:23:36 58° 115° (ESE) 902 6.0 -17.5°
Enters shadow 01:27:02 20° 43° (NE) 1,659 7.4 -18.1°
